Regional Weather Roundup
Issued by NWS

Home | Current Version | Previous Version | Text Only | Print | Product List | Glossary On
Versions: 1 2 3 4 5 6 7 8 9 10 11 12 13 14 15 16 17 18 19 20 21 22 23 24 25 26 27 28 29 30 31 32 33 34 35 36 37 38 39 40 41 42 43 44 45 46 47 48 49 50
000
ASUS43 KLMK 280510
RWRKY
KENTUCKY REGIONAL WEATHER ROUNDUP
NATIONAL WEATHER SERVICE LOUISVILLE KY
1200 AM EST SUN DEC 28 2014

NOTE "FAIR" INDICATES FEW OR NO CLOUDS BELOW 12,000 FEET
WITH NO SIGNIFICANT WEATHER AND/OR OBSTRUCTIONS TO VISIBILITY.

KYZ001>023-026-027-061>063-070>075-280600-
WESTERN AND SOUTH CENTRAL KENTUCKY

CITY           SKY/WX    TMP DP  RH WIND       PRES   REMARKS
PADUCAH        CLOUDY    40  38  93 N10       30.14R WCI  33
HENDERSON      CLOUDY    39  36  87 NW10      30.13F WCI  32
OWENSBORO      LGT RAIN  42  41  97 CALM      30.11F
HOPKINSVILLE   LGT RAIN  45  45 100 N6        30.11S
BOWLING GREEN  LGT RAIN  49  46  90 SW5       30.11F FOG
GLASGOW        DRIZZLE   47  47 100 CALM      30.10S
$$

KYZ024-025-028>034-038-045-046-053-280600-
NORTH CENTRAL KENTUCKY

CITY           SKY/WX    TMP DP  RH WIND       PRES   REMARKS
LOUISVILLE/SDF LGT RAIN  49  47  93 SW6       30.09R
LOUISVILLE/LOU LGT RAIN  48  47  96 SW3       30.08F FOG
FORT KNOX      LGT RAIN  46  46 100 W6        30.08S
$$

KYZ035>037-039>044-047>052-055>060-089>105-280600-
NORTHEAST KENTUCKY

CITY           SKY/WX    TMP DP  RH WIND       PRES   REMARKS
LEXINGTON      CLOUDY    47  46  97 SW10      30.07F FOG
COVINGTON      LGT RAIN  47  44  90 SW5       30.07F
FRANKFORT      CLOUDY    47  45  93 SW6       30.06F FOG
$$

KYZ054-064>069-076>088-106>120-280600-
SOUTHEAST KENTUCKY

CITY           SKY/WX    TMP DP  RH WIND       PRES   REMARKS
JACKSON        CLOUDY    49  39  68 SW6       30.08S
LONDON         CLOUDY    48  42  80 W3        30.09F
SOMERSET       DRIZZLE   45  45 100 CALM      30.12R
MIDDLESBORO    RAIN      47  43  87 CALM      30.11F
MONTICELLO     CLOUDY    48  46  93 W6        30.14R FOG
$$




USA.gov is the U.S. government's official web portal to all federal, state and local government web resources and services.